Time,TemperatureF,DewpointF,PressureIn,WindDirection,WindDirectionDegrees,WindSpeedMPH,WindSpeedGustMPH,Humidity,HourlyPrecipIn,Conditions,Clouds,dailyrainin,SolarRadiationWatts/m^2,SoftwareType,DateUTC
2013-12-13 00:01:00,16.3,6.6,30.07,SW,227,3.0,4.0,65,0.00,,---,0.00,0.00,VWS V14.01,2013-12-13 05:01:00,
2013-12-13 00:06:00,16.3,6.6,30.07,SW,227,2.0,3.0,65,0.00,,---,0.00,0.00,VWS V14.01,2013-12-13 05:06:00,
2013-12-13 00:11:00,16.4,6.7,30.07,SW,227,6.0,6.0,65,0.00,,---,0.00,0.00,VWS V14.01,2013-12-13 05:11:00,
2013-12-13 00:16:00,16.5,6.5,30.07,SW,229,3.0,3.0,64,0.00,,---,0.00,0.00,VWS V14.01,2013-12-13 05:16:00,
2013-12-13 00:21:00,16.6,6.6,30.07,SW,227,4.0,6.0,64,0.00,,---,0.00,0.00,VWS V14.01,2013-12-13 05:21:00,
2013-12-13 00:26:00,16.7,6.3,30.06,SW,227,4.0,4.0,63,0.00,,---,0.00,0.00,VWS V14.01,2013-12-13 05:26:00,
2013-12-13 00:31:00,16.7,6.3,30.06,SW,227,2.0,3.0,63,0.00,,---,0.00,0.00,VWS V14.01,2013-12-13 05:31:00,
2013-12-13 00:36:00,16.6,6.2,30.06,SW,226,3.0,4.0,63,0.00,,---,0.00,0.00,VWS V14.01,2013-12-13 05:36:00,
2013-12-13 01:01:00,16.9,6.2,30.05,SW,227,5.0,6.0,62,0.00,,---,0.00,0.00,VWS V14.01,2013-12-13 06:01:00,
2013-12-13 01:06:00,16.9,5.8,30.05,SW,227,5.0,5.0,61,0.00,,---,0.00,0.00,VWS V14.01,2013-12-13 06:06:00,
2013-12-13 01:11:00,16.8,5.7,30.04,SW,227,1.0,3.0,61,0.00,,---,0.00,0.00,VWS V14.01,2013-12-13 06:11:00,
2013-12-13 01:16:00,16.9,5.8,30.05,SW,226,3.0,4.0,61,0.00,,---,0.00,0.00,VWS V14.01,2013-12-13 06:16:00,
2013-12-13 01:21:00,16.9,6.2,30.04,SW,226,1.0,1.0,62,0.00,,---,0.00,0.00,VWS V14.01,2013-12-13 06:21:00,
2013-12-13 01:26:00,16.9,6.5,30.05,SW,227,0.0,0.0,63,0.00,,---,0.00,0.00,VWS V14.01,2013-12-13 06:26:00,
2013-12-13 01:31:00,16.8,6.8,30.05,SW,227,0.0,0.0,64,0.00,,---,0.00,0.00,VWS V14.01,2013-12-13 06:31:00,
2013-12-13 01:36:00,16.7,7.0,30.03,SW,227,0.0,0.0,65,0.00,,---,0.00,0.00,VWS V14.01,2013-12-13 06:36:00,
2013-12-13 01:41:00,16.6,6.9,30.04,SW,227,0.0,1.0,65,0.00,,---,0.00,0.00,VWS V14.01,2013-12-13 06:41:00,
2013-12-13 01:46:00,16.4,7.0,30.04,SW,227,0.0,0.0,66,0.00,,---,0.00,0.00,VWS V14.01,2013-12-13 06:46:00,
2013-12-13 01:51:00,16.3,6.9,30.04,SW,227,2.0,2.0,66,0.00,,---,0.00,0.00,VWS V14.01,2013-12-13 06:51:00,
2013-12-13 01:56:00,16.2,6.8,30.03,SW,227,0.0,0.0,66,0.00,,---,0.00,0.00,VWS V14.01,2013-12-13 06:56:00,
2013-12-13 02:01:00,16.1,6.8,30.03,SW,226,1.0,1.0,66,0.00,,---,0.00,0.00,VWS V14.01,2013-12-13 07:01:00,
2013-12-13 02:06:00,16.1,7.1,30.03,SW,227,0.0,4.0,67,0.00,,---,0.00,0.00,VWS V14.01,2013-12-13 07:06:00,
2013-12-13 02:11:00,16.1,7.1,30.04,SW,226,1.0,2.0,67,0.00,,---,0.00,0.00,VWS V14.01,2013-12-13 07:11:00,
2013-12-13 02:16:00,16.1,7.4,30.04,SW,227,0.0,0.0,68,0.00,,---,0.00,0.00,VWS V14.01,2013-12-13 07:16:00,
2013-12-13 02:21:00,16.1,7.4,30.03,SW,227,0.0,2.0,68,0.00,,---,0.00,0.00,VWS V14.01,2013-12-13 07:21:00,
2013-12-13 02:26:00,16.1,7.4,30.04,SW,227,0.0,1.0,68,0.00,,---,0.00,0.00,VWS V14.01,2013-12-13 07:26:00,
2013-12-13 02:31:00,16.1,7.4,30.04,SW,227,0.0,0.0,68,0.00,,---,0.00,0.00,VWS V14.01,2013-12-13 07:31:00,
2013-12-13 02:36:00,16.1,7.7,30.03,SW,226,0.0,3.0,69,0.00,,---,0.00,0.00,VWS V14.01,2013-12-13 07:36:00,
2013-12-13 02:41:00,16.2,7.8,30.03,SW,226,0.0,3.0,69,0.00,,---,0.00,0.00,VWS V14.01,2013-12-13 07:41:00,
2013-12-13 02:46:00,16.3,7.9,30.03,SW,226,1.0,2.0,69,0.00,,---,0.00,0.00,VWS V14.01,2013-12-13 07:46:00,
2013-12-13 02:51:00,16.4,8.0,30.02,SW,227,2.0,2.0,69,0.00,,---,0.00,0.00,VWS V14.01,2013-12-13 07:51:00,
2013-12-13 02:56:00,16.4,8.3,30.03,SW,227,1.0,2.0,70,0.00,,---,0.00,0.00,VWS V14.01,2013-12-13 07:56:00,
2013-12-13 03:02:00,16.4,8.3,30.03,SW,225,1.0,3.0,70,0.00,,---,0.00,0.00,VWS V14.01,2013-12-13 08:02:00,
2013-12-13 03:07:00,16.5,8.8,30.03,SW,227,1.0,3.0,71,0.00,,---,0.00,0.00,VWS V14.01,2013-12-13 08:07:00,
2013-12-13 03:12:00,16.6,8.9,30.03,SW,226,0.0,4.0,71,0.00,,---,0.00,0.00,VWS V14.01,2013-12-13 08:12:00,
2013-12-13 03:17:00,16.8,9.0,30.03,SW,227,0.0,3.0,71,0.00,,---,0.00,0.00,VWS V14.01,2013-12-13 08:17:00,
2013-12-13 03:22:00,16.9,9.1,30.03,SW,225,1.0,4.0,71,0.00,,---,0.00,0.00,VWS V14.01,2013-12-13 08:22:00,
2013-12-13 03:27:00,17.1,9.3,30.03,SW,225,0.0,4.0,71,0.00,,---,0.00,0.00,VWS V14.01,2013-12-13 08:27:00,
2013-12-13 03:33:00,17.2,9.4,30.02,SW,223,0.0,1.0,71,0.00,,---,0.00,0.00,VWS V14.01,2013-12-13 08:33:00,
2013-12-13 03:38:00,17.3,9.5,30.02,SW,223,0.0,1.0,71,0.00,,---,0.00,0.00,VWS V14.01,2013-12-13 08:38:00,
2013-12-13 03:43:00,17.4,9.6,30.02,SW,223,1.0,2.0,71,0.00,,---,0.00,0.00,VWS V14.01,2013-12-13 08:43:00,
2013-12-13 03:48:00,17.5,9.7,30.01,SW,223,2.0,2.0,71,0.00,,---,0.00,0.00,VWS V14.01,2013-12-13 08:48:00,
2013-12-13 03:53:00,17.6,10.1,30.02,SW,223,0.0,1.0,72,0.00,,---,0.00,0.00,VWS V14.01,2013-12-13 08:53:00,
2013-12-13 03:58:00,17.8,10.3,30.01,SW,221,2.0,2.0,72,0.00,,---,0.00,0.00,VWS V14.01,2013-12-13 08:58:00,
2013-12-13 04:03:00,17.9,10.4,30.01,SW,221,1.0,2.0,72,0.00,,---,0.00,0.00,VWS V14.01,2013-12-13 09:03:00,
2013-12-13 04:07:00,18.0,10.5,30.01,SW,221,1.0,1.0,72,0.00,,---,0.00,0.00,VWS V14.01,2013-12-13 09:07:00,
2013-12-13 04:12:00,18.1,10.6,30.02,SW,221,1.0,2.0,72,0.00,,---,0.00,0.00,VWS V14.01,2013-12-13 09:12:00,
2013-12-13 04:17:00,18.2,10.7,30.01,SW,221,0.0,1.0,72,0.00,,---,0.00,0.00,VWS V14.01,2013-12-13 09:17:00,
2013-12-13 04:22:00,18.3,10.8,30.01,SW,221,0.0,1.0,72,0.00,,---,0.00,0.00,VWS V14.01,2013-12-13 09:22:00,
2013-12-13 04:27:00,18.4,10.9,30.01,SW,217,2.0,2.0,72,0.00,,---,0.00,0.00,VWS V14.01,2013-12-13 09:27:00,
2013-12-13 04:32:00,18.5,10.7,30.01,SW,215,3.0,3.0,71,0.00,,---,0.00,0.00,VWS V14.01,2013-12-13 09:32:00,
2013-12-13 04:37:00,18.6,10.8,30.00,SSW,213,2.0,3.0,71,0.00,,---,0.00,0.00,VWS V14.01,2013-12-13 09:37:00,
2013-12-13 04:42:00,18.7,10.9,30.00,SSW,209,2.0,3.0,71,0.00,,---,0.00,0.00,VWS V14.01,2013-12-13 09:42:00,
2013-12-13 04:47:00,18.8,11.0,30.00,SSW,209,3.0,6.0,71,0.00,,---,0.00,0.00,VWS V14.01,2013-12-13 09:47:00,
2013-12-13 04:52:00,18.7,10.9,30.00,SSW,209,2.0,2.0,71,0.00,,---,0.00,0.00,VWS V14.01,2013-12-13 09:52:00,
2013-12-13 04:57:00,18.7,10.9,30.00,SSW,209,3.0,3.0,71,0.00,,---,0.00,0.00,VWS V14.01,2013-12-13 09:57:00,
2013-12-13 05:02:00,18.7,10.9,30.00,SSW,208,1.0,2.0,71,0.00,,---,0.00,0.00,VWS V14.01,2013-12-13 10:02:00,
2013-12-13 05:07:00,18.7,10.9,30.00,SSW,209,2.0,3.0,71,0.00,,---,0.00,0.00,VWS V14.01,2013-12-13 10:07:00,
2013-12-13 05:12:00,18.6,10.5,30.00,SSW,209,2.0,3.0,70,0.00,,---,0.00,0.00,VWS V14.01,2013-12-13 10:12:00,
2013-12-13 05:17:00,18.5,10.4,29.99,SSW,211,2.0,2.0,70,0.00,,---,0.00,0.00,VWS V14.01,2013-12-13 10:17:00,
2013-12-13 05:22:00,18.3,10.2,30.00,SSW,210,0.0,1.0,70,0.00,,---,0.00,0.00,VWS V14.01,2013-12-13 10:22:00,
2013-12-13 05:27:00,18.1,10.0,29.99,SSW,210,1.0,2.0,70,0.00,,---,0.00,0.00,VWS V14.01,2013-12-13 10:27:00,
2013-12-13 05:33:00,18.0,9.9,29.99,SSW,209,2.0,3.0,70,0.00,,---,0.00,0.00,VWS V14.01,2013-12-13 10:33:00,
2013-12-13 05:38:00,17.8,10.0,30.00,SSW,208,0.0,0.0,71,0.00,,---,0.00,0.00,VWS V14.01,2013-12-13 10:38:00,
2013-12-13 05:43:00,17.7,9.9,29.99,SSW,207,3.0,3.0,71,0.00,,---,0.00,0.00,VWS V14.01,2013-12-13 10:43:00,
2013-12-13 05:48:00,17.6,9.8,30.00,SSW,206,2.0,2.0,71,0.00,,---,0.00,0.00,VWS V14.01,2013-12-13 10:48:00,
2013-12-13 05:53:00,17.5,9.7,29.99,SSW,205,2.0,6.0,71,0.00,,---,0.00,0.00,VWS V14.01,2013-12-13 10:53:00,
2013-12-13 05:58:00,17.3,9.5,29.99,SSW,203,1.0,3.0,71,0.00,,---,0.00,0.00,VWS V14.01,2013-12-13 10:58:00,
2013-12-13 06:03:00,17.3,9.5,30.00,SSW,202,0.0,2.0,71,0.00,,---,0.00,0.00,VWS V14.01,2013-12-13 11:03:00,
2013-12-13 06:08:00,17.2,9.4,29.99,SSW,202,2.0,3.0,71,0.00,,---,0.00,0.00,VWS V14.01,2013-12-13 11:08:00,
2013-12-13 06:13:00,17.0,9.6,29.99,SSW,202,0.0,2.0,72,0.00,,---,0.00,0.00,VWS V14.01,2013-12-13 11:13:00,
2013-12-13 06:18:00,16.9,9.4,30.00,SSW,202,1.0,4.0,72,0.00,,---,0.00,0.00,VWS V14.01,2013-12-13 11:18:00,
2013-12-13 06:23:00,16.8,9.4,29.99,SSW,202,2.0,4.0,72,0.00,,---,0.00,0.00,VWS V14.01,2013-12-13 11:23:00,
2013-12-13 06:28:00,16.6,9.2,30.00,SSW,201,2.0,2.0,72,0.00,,---,0.00,0.00,VWS V14.01,2013-12-13 11:28:00,
2013-12-13 06:32:00,16.5,9.4,30.00,SSW,200,2.0,3.0,73,0.00,,---,0.00,0.00,VWS V14.01,2013-12-13 11:32:00,
2013-12-13 06:37:00,16.4,9.3,30.00,SSW,199,4.0,4.0,73,0.00,,---,0.00,0.00,VWS V14.01,2013-12-13 11:37:00,
2013-12-13 06:42:00,16.3,9.2,30.00,SSW,199,0.0,0.0,73,0.00,,---,0.00,0.00,VWS V14.01,2013-12-13 11:42:00,
2013-12-13 06:47:00,16.3,9.2,30.00,SSW,200,1.0,1.0,73,0.00,,---,0.00,0.00,VWS V14.01,2013-12-13 11:47:00,
2013-12-13 06:52:00,16.2,9.4,30.00,SSW,199,0.0,1.0,74,0.00,,---,0.00,0.00,VWS V14.01,2013-12-13 11:52:00,
2013-12-13 06:57:00,16.2,9.4,30.00,SSW,199,3.0,3.0,74,0.00,,---,0.00,0.00,VWS V14.01,2013-12-13 11:57:00,
2013-12-13 07:02:00,16.1,9.3,30.00,SSW,199,0.0,0.0,74,0.00,,---,0.00,0.00,VWS V14.01,2013-12-13 12:02:00,
2013-12-13 07:07:00,16.0,9.2,30.00,SSW,199,3.0,4.0,74,0.00,,---,0.00,0.00,VWS V14.01,2013-12-13 12:07:00,
2013-12-13 07:12:00,16.0,9.2,30.00,SSW,199,3.0,5.0,74,0.00,,---,0.00,0.00,VWS V14.01,2013-12-13 12:12:00,
2013-12-13 07:17:00,15.9,9.1,30.00,SSW,199,0.0,1.0,74,0.00,,---,0.00,0.00,VWS V14.01,2013-12-13 12:17:00,
2013-12-13 07:22:00,15.9,9.4,30.00,SSW,199,2.0,3.0,75,0.00,,---,0.00,0.00,VWS V14.01,2013-12-13 12:22:00,
2013-12-13 07:24:00,15.9,9.4,30.00,SSW,199,1.0,2.0,75,0.00,,---,0.00,0.00,VWS V14.01,2013-12-13 12:24:00,
2013-12-13 07:29:00,15.9,9.4,30.00,SSW,199,2.0,2.0,75,0.00,,---,0.00,0.00,VWS V14.01,2013-12-13 12:29:00,
2013-12-13 07:34:00,15.9,9.4,30.00,SSW,199,0.0,2.0,75,0.00,,---,0.00,0.00,VWS V14.01,2013-12-13 12:34:00,
2013-12-13 07:39:00,15.8,9.3,30.00,SSW,199,1.0,4.0,75,0.00,,---,0.00,0.00,VWS V14.01,2013-12-13 12:39:00,
2013-12-13 07:44:00,15.7,9.2,30.00,SSW,199,2.0,2.0,75,0.00,,---,0.00,0.00,VWS V14.01,2013-12-13 12:44:00,
2013-12-13 07:49:00,15.7,9.2,30.00,SSW,199,0.0,2.0,75,0.00,,---,0.00,5.00,VWS V14.01,2013-12-13 12:49:00,
2013-12-13 07:54:00,15.7,9.2,30.00,SSW,199,1.0,3.0,75,0.00,,---,0.00,7.00,VWS V14.01,2013-12-13 12:54:00,
2013-12-13 07:59:00,15.6,9.1,30.00,SSW,199,1.0,2.0,75,0.00,,---,0.00,9.00,VWS V14.01,2013-12-13 12:59:00,
2013-12-13 08:04:00,15.6,9.4,30.00,SSW,199,1.0,2.0,76,0.00,,---,0.00,12.00,VWS V14.01,2013-12-13 13:04:00,
2013-12-13 08:09:00,15.5,9.3,30.00,SSW,199,1.0,1.0,76,0.00,,---,0.00,14.00,VWS V14.01,2013-12-13 13:09:00,
2013-12-13 08:14:00,15.6,9.4,30.00,SSW,199,2.0,3.0,76,0.00,,---,0.00,18.00,VWS V14.01,2013-12-13 13:14:00,
2013-12-13 08:19:00,15.7,9.5,30.00,SSW,199,0.0,1.0,76,0.00,,---,0.00,21.00,VWS V14.01,2013-12-13 13:19:00,
2013-12-13 08:24:00,15.8,9.6,30.00,SSW,199,0.0,0.0,76,0.00,,---,0.00,28.00,VWS V14.01,2013-12-13 13:24:00,
2013-12-13 08:29:00,15.9,9.7,30.00,SSW,199,1.0,3.0,76,0.00,,---,0.00,35.00,VWS V14.01,2013-12-13 13:29:00,
2013-12-13 08:34:00,16.2,10.0,30.00,SSW,199,2.0,3.0,76,0.00,,---,0.00,49.00,VWS V14.01,2013-12-13 13:34:00,
2013-12-13 08:39:00,16.4,10.2,30.01,SSW,199,1.0,2.0,76,0.00,,---,0.00,56.00,VWS V14.01,2013-12-13 13:39:00,
2013-12-13 08:44:00,16.7,10.5,30.00,SSW,199,1.0,1.0,76,0.00,,---,0.00,76.00,VWS V14.01,2013-12-13 13:44:00,
2013-12-13 08:49:00,17.0,10.8,30.00,SSW,199,1.0,1.0,76,0.00,,---,0.00,84.00,VWS V14.01,2013-12-13 13:49:00,
2013-12-13 08:54:00,17.4,11.1,30.00,SSW,198,2.0,2.0,76,0.00,,---,0.00,107.00,VWS V14.01,2013-12-13 13:54:00,
2013-12-13 08:59:00,17.7,11.1,30.00,SSW,198,1.0,4.0,75,0.00,,---,0.00,111.00,VWS V14.01,2013-12-13 13:59:00,
2013-12-13 09:04:00,18.1,11.5,30.00,SSW,198,1.0,3.0,75,0.00,,---,0.00,130.00,VWS V14.01,2013-12-13 14:04:00,
2013-12-13 09:09:00,18.5,11.9,30.00,SSW,197,4.0,4.0,75,0.00,,---,0.00,149.00,VWS V14.01,2013-12-13 14:09:00,
2013-12-13 09:14:00,18.8,12.2,30.00,SSW,200,5.0,5.0,75,0.00,,---,0.00,162.00,VWS V14.01,2013-12-13 14:14:00,
2013-12-13 09:19:00,19.2,12.3,30.00,SSW,213,3.0,3.0,74,0.00,,---,0.00,183.00,VWS V14.01,2013-12-13 14:19:00,
2013-12-13 09:24:00,19.7,12.8,30.00,SSW,202,2.0,2.0,74,0.00,,---,0.00,200.00,VWS V14.01,2013-12-13 14:24:00,
2013-12-13 09:29:00,19.9,12.7,30.00,SSW,205,2.0,2.0,73,0.00,,---,0.00,162.00,VWS V14.01,2013-12-13 14:29:00,
2013-12-13 09:34:00,20.3,13.0,30.00,SSW,205,0.0,2.0,73,0.00,,---,0.00,232.00,VWS V14.01,2013-12-13 14:34:00,
2013-12-13 09:39:00,20.7,13.4,30.00,SSW,205,4.0,4.0,73,0.00,,---,0.00,244.00,VWS V14.01,2013-12-13 14:39:00,
2013-12-13 09:44:00,21.2,13.9,30.00,SSW,208,3.0,3.0,73,0.00,,---,0.00,260.00,VWS V14.01,2013-12-13 14:44:00,
2013-12-13 09:49:00,21.7,14.1,30.00,SSW,208,5.0,6.0,72,0.00,,---,0.00,269.00,VWS V14.01,2013-12-13 14:49:00,
2013-12-13 09:54:00,22.2,14.6,30.01,SSW,210,0.0,1.0,72,0.00,,---,0.00,287.00,VWS V14.01,2013-12-13 14:54:00,
2013-12-13 09:59:00,22.7,14.7,30.01,SW,228,5.0,5.0,71,0.00,,---,0.00,316.00,VWS V14.01,2013-12-13 14:59:00,
2013-12-13 10:04:00,23.1,16.7,30.01,SW,221,3.0,5.0,76,0.00,,---,0.00,336.00,VWS V14.01,2013-12-13 15:04:00,
2013-12-13 10:09:00,23.6,15.3,30.01,SW,234,10.0,11.0,70,0.00,,---,0.00,318.00,VWS V14.01,2013-12-13 15:09:00,
2013-12-13 10:14:00,24.1,15.4,30.01,WSW,237,5.0,5.0,69,0.00,,---,0.00,353.00,VWS V14.01,2013-12-13 15:14:00,
2013-12-13 10:19:00,24.5,15.8,30.01,SW,235,2.0,3.0,69,0.00,,---,0.00,369.00,VWS V14.01,2013-12-13 15:19:00,
2013-12-13 10:23:00,24.8,15.8,30.01,WSW,242,2.0,3.0,68,0.00,,---,0.00,376.00,VWS V14.01,2013-12-13 15:23:00,
2013-12-13 10:28:00,25.1,16.0,30.01,SW,227,3.0,4.0,68,0.00,,---,0.00,383.00,VWS V14.01,2013-12-13 15:28:00,
2013-12-13 10:33:00,25.3,15.9,30.01,SSW,210,3.0,4.0,67,0.00,,---,0.00,392.00,VWS V14.01,2013-12-13 15:33:00,
2013-12-13 10:38:00,25.4,16.0,30.01,SW,223,3.0,5.0,67,0.00,,---,0.00,403.00,VWS V14.01,2013-12-13 15:38:00,
2013-12-13 10:43:00,25.6,16.2,30.00,SW,225,3.0,3.0,67,0.00,,---,0.00,230.00,VWS V14.01,2013-12-13 15:43:00,
2013-12-13 10:48:00,25.6,16.2,30.00,SSW,212,4.0,5.0,67,0.00,,---,0.00,439.00,VWS V14.01,2013-12-13 15:48:00,
2013-12-13 10:53:00,25.4,16.0,30.01,SW,229,8.0,8.0,67,0.00,,---,0.00,260.00,VWS V14.01,2013-12-13 15:53:00,
2013-12-13 10:58:00,25.3,15.9,30.01,SW,223,3.0,3.0,67,0.00,,---,0.00,350.00,VWS V14.01,2013-12-13 15:58:00,
2013-12-13 11:03:00,25.3,15.9,30.01,SW,227,3.0,10.0,67,0.00,,---,0.00,482.00,VWS V14.01,2013-12-13 16:03:00,
2013-12-13 11:08:00,25.5,16.1,30.00,SW,234,5.0,8.0,67,0.00,,---,0.00,468.00,VWS V14.01,2013-12-13 16:08:00,
2013-12-13 11:13:00,25.9,16.5,30.00,SW,234,1.0,4.0,67,0.00,,---,0.00,482.00,VWS V14.01,2013-12-13 16:13:00,
2013-12-13 11:18:00,26.5,17.4,30.00,SW,234,0.0,0.0,68,0.00,,---,0.00,476.00,VWS V14.01,2013-12-13 16:18:00,
2013-12-13 11:23:00,27.1,17.3,30.00,SSW,203,3.0,4.0,66,0.00,,---,0.00,483.00,VWS V14.01,2013-12-13 16:23:00,
2013-12-13 11:28:00,27.6,17.7,29.99,SSW,213,1.0,2.0,66,0.00,,---,0.00,496.00,VWS V14.01,2013-12-13 16:28:00,
2013-12-13 11:33:00,28.2,18.3,29.99,SSW,213,1.0,3.0,66,0.00,,---,0.00,418.00,VWS V14.01,2013-12-13 16:33:00,
2013-12-13 11:38:00,28.3,18.1,29.99,SW,235,6.0,6.0,65,0.00,,---,0.00,283.00,VWS V14.01,2013-12-13 16:38:00,
2013-12-13 11:43:00,28.4,18.1,29.99,SW,226,3.0,4.0,65,0.00,,---,0.00,529.00,VWS V14.01,2013-12-13 16:43:00,
2013-12-13 11:48:00,28.7,18.1,29.99,SW,234,7.0,7.0,64,0.00,,---,0.00,499.00,VWS V14.01,2013-12-13 16:48:00,
2013-12-13 11:53:00,28.7,18.1,29.98,WSW,238,4.0,4.0,64,0.00,,---,0.00,519.00,VWS V14.01,2013-12-13 16:53:00,
2013-12-13 11:58:00,28.9,18.3,29.98,SW,221,3.0,6.0,64,0.00,,---,0.00,548.00,VWS V14.01,2013-12-13 16:58:00,
2013-12-13 12:03:00,29.4,18.7,29.98,SW,218,4.0,4.0,64,0.00,,---,0.00,341.00,VWS V14.01,2013-12-13 17:03:00,
2013-12-13 12:08:00,29.6,18.9,29.97,South,178,2.0,5.0,64,0.00,,---,0.00,461.00,VWS V14.01,2013-12-13 17:08:00,
2013-12-13 12:13:00,29.8,19.1,29.97,SW,214,0.0,2.0,64,0.00,,---,0.00,438.00,VWS V14.01,2013-12-13 17:13:00,
2013-12-13 12:18:00,29.9,19.6,29.98,SW,221,6.0,6.0,65,0.00,,---,0.00,425.00,VWS V14.01,2013-12-13 17:18:00,
2013-12-13 12:23:00,30.1,19.8,29.97,WNW,285,1.0,4.0,65,0.00,,---,0.00,378.00,VWS V14.01,2013-12-13 17:23:00,
2013-12-13 12:28:00,30.3,19.6,29.97,WSW,237,0.0,4.0,64,0.00,,---,0.00,334.00,VWS V14.01,2013-12-13 17:28:00,
2013-12-13 12:33:00,30.4,19.7,29.96,SW,225,1.0,5.0,64,0.00,,---,0.00,329.00,VWS V14.01,2013-12-13 17:33:00,
2013-12-13 12:38:00,30.5,19.8,29.96,SSW,206,0.0,4.0,64,0.00,,---,0.00,360.00,VWS V14.01,2013-12-13 17:38:00,
2013-12-13 12:43:00,30.7,20.0,29.96,South,182,2.0,3.0,64,0.00,,---,0.00,408.00,VWS V14.01,2013-12-13 17:43:00,
2013-12-13 12:48:00,31.0,20.3,29.95,South,182,0.0,2.0,64,0.00,,---,0.00,517.00,VWS V14.01,2013-12-13 17:48:00,
2013-12-13 12:53:00,31.3,20.5,29.95,South,182,0.0,4.0,64,0.00,,---,0.00,408.00,VWS V14.01,2013-12-13 17:53:00,
2013-12-13 12:58:00,31.3,20.2,29.95,SW,219,3.0,7.0,63,0.00,,---,0.00,387.00,VWS V14.01,2013-12-13 17:58:00,
2013-12-13 13:03:00,31.3,20.2,29.95,SSW,210,3.0,3.0,63,0.00,,---,0.00,378.00,VWS V14.01,2013-12-13 18:03:00,
2013-12-13 13:08:00,31.3,19.8,29.95,SW,229,3.0,8.0,62,0.00,,---,0.00,334.00,VWS V14.01,2013-12-13 18:08:00,
2013-12-13 13:13:00,31.2,20.1,29.94,SW,229,1.0,3.0,63,0.00,,---,0.00,350.00,VWS V14.01,2013-12-13 18:13:00,
2013-12-13 13:18:00,31.5,20.4,29.94,South,175,2.0,3.0,63,0.00,,---,0.00,318.00,VWS V14.01,2013-12-13 18:18:00,
2013-12-13 13:23:00,31.6,20.5,29.94,South,175,0.0,5.0,63,0.00,,---,0.00,330.00,VWS V14.01,2013-12-13 18:23:00,
2013-12-13 13:28:00,31.4,20.3,29.94,SSW,192,0.0,4.0,63,0.00,,---,0.00,260.00,VWS V14.01,2013-12-13 18:28:00,
2013-12-13 13:33:00,31.3,20.2,29.94,South,191,0.0,3.0,63,0.00,,---,0.00,274.00,VWS V14.01,2013-12-13 18:33:00,
2013-12-13 13:38:00,31.7,20.6,29.94,South,191,0.0,2.0,63,0.00,,---,0.00,585.00,VWS V14.01,2013-12-13 18:38:00,
2013-12-13 13:43:00,32.3,21.1,29.94,SSW,196,0.0,1.0,63,0.00,,---,0.00,536.00,VWS V14.01,2013-12-13 18:43:00,
2013-12-13 13:48:00,32.9,20.9,29.94,SW,215,0.0,3.0,61,0.00,,---,0.00,497.00,VWS V14.01,2013-12-13 18:48:00,
2013-12-13 13:53:00,33.2,21.2,29.94,SW,223,0.0,0.0,61,0.00,,---,0.00,482.00,VWS V14.01,2013-12-13 18:53:00,
2013-12-13 13:58:00,33.5,21.5,29.93,SW,226,0.0,4.0,61,0.00,,---,0.00,466.00,VWS V14.01,2013-12-13 18:58:00,
2013-12-13 14:03:00,33.7,21.3,29.93,SSW,211,2.0,4.0,60,0.00,,---,0.00,459.00,VWS V14.01,2013-12-13 19:03:00,
2013-12-13 14:08:00,33.8,21.4,29.93,SSW,211,0.0,0.0,60,0.00,,---,0.00,450.00,VWS V14.01,2013-12-13 19:08:00,
2013-12-13 14:13:00,34.1,21.7,29.93,SSW,211,1.0,1.0,60,0.00,,---,0.00,441.00,VWS V14.01,2013-12-13 19:13:00,
2013-12-13 14:18:00,34.3,21.9,29.93,SSW,195,3.0,3.0,60,0.00,,---,0.00,432.00,VWS V14.01,2013-12-13 19:18:00,
2013-12-13 14:23:00,34.4,22.0,29.93,South,186,6.0,6.0,60,0.00,,---,0.00,427.00,VWS V14.01,2013-12-13 19:23:00,
2013-12-13 14:28:00,34.4,22.0,29.93,South,171,4.0,4.0,60,0.01,,---,0.01,418.00,VWS V14.01,2013-12-13 19:28:00,
2013-12-13 14:33:00,34.4,22.0,29.93,South,171,0.0,1.0,60,0.01,,---,0.01,415.00,VWS V14.01,2013-12-13 19:33:00,
2013-12-13 14:38:00,34.4,22.0,29.93,South,171,8.0,9.0,60,0.01,,---,0.01,413.00,VWS V14.01,2013-12-13 19:38:00,
2013-12-13 14:43:00,34.4,22.0,29.93,South,184,2.0,5.0,60,0.01,,---,0.01,387.00,VWS V14.01,2013-12-13 19:43:00,
2013-12-13 14:48:00,34.4,22.0,29.93,SSW,198,2.0,3.0,60,0.01,,---,0.01,352.00,VWS V14.01,2013-12-13 19:48:00,
2013-12-13 14:53:00,34.3,21.9,29.93,SW,214,2.0,4.0,60,0.01,,---,0.01,357.00,VWS V14.01,2013-12-13 19:53:00,
2013-12-13 14:58:00,34.4,22.0,29.93,South,181,0.0,5.0,60,0.01,,---,0.01,329.00,VWS V14.01,2013-12-13 19:58:00,
2013-12-13 15:03:00,34.4,22.4,29.93,SSW,198,0.0,5.0,61,0.01,,---,0.01,285.00,VWS V14.01,2013-12-13 20:03:00,
2013-12-13 15:08:00,34.4,22.0,29.92,South,175,9.0,9.0,60,0.01,,---,0.01,216.00,VWS V14.01,2013-12-13 20:08:00,
2013-12-13 15:13:00,34.0,22.0,29.92,SSW,199,6.0,6.0,61,0.01,,---,0.01,218.00,VWS V14.01,2013-12-13 20:13:00,
2013-12-13 15:18:00,33.8,21.8,29.92,South,171,6.0,11.0,61,0.01,,---,0.01,199.00,VWS V14.01,2013-12-13 20:18:00,
2013-12-13 15:23:00,33.5,21.5,29.92,South,172,3.0,7.0,61,0.01,,---,0.01,178.00,VWS V14.01,2013-12-13 20:23:00,
2013-12-13 15:28:00,33.4,21.8,29.92,South,172,1.0,2.0,62,0.00,,---,0.01,155.00,VWS V14.01,2013-12-13 20:28:00,
2013-12-13 15:33:00,33.3,22.1,29.92,South,186,1.0,3.0,63,0.00,,---,0.01,127.00,VWS V14.01,2013-12-13 20:33:00,
2013-12-13 15:38:00,33.2,22.0,29.92,South,187,3.0,6.0,63,0.00,,---,0.01,121.00,VWS V14.01,2013-12-13 20:38:00,
2013-12-13 15:43:00,33.1,21.9,29.92,South,182,2.0,4.0,63,0.00,,---,0.01,120.00,VWS V14.01,2013-12-13 20:43:00,
2013-12-13 15:48:00,33.0,22.2,29.92,South,182,2.0,4.0,64,0.00,,---,0.01,116.00,VWS V14.01,2013-12-13 20:48:00,
2013-12-13 15:53:00,33.0,22.2,29.92,South,183,1.0,7.0,64,0.00,,---,0.01,109.00,VWS V14.01,2013-12-13 20:53:00,
2013-12-13 15:58:00,33.0,22.2,29.92,South,182,6.0,6.0,64,0.00,,---,0.01,102.00,VWS V14.01,2013-12-13 20:58:00,
2013-12-13 16:03:00,32.9,22.1,29.92,South,186,1.0,3.0,64,0.00,,---,0.01,102.00,VWS V14.01,2013-12-13 21:03:00,
2013-12-13 16:08:00,32.8,22.0,29.91,South,187,1.0,3.0,64,0.00,,---,0.01,86.00,VWS V14.01,2013-12-13 21:08:00,
2013-12-13 16:13:00,32.8,22.3,29.92,South,187,4.0,4.0,65,0.00,,---,0.01,76.00,VWS V14.01,2013-12-13 21:13:00,
2013-12-13 16:18:00,32.7,21.9,29.91,South,186,6.0,6.0,64,0.00,,---,0.01,65.00,VWS V14.01,2013-12-13 21:18:00,
2013-12-13 16:23:00,32.7,21.9,29.91,South,186,3.0,4.0,64,0.00,,---,0.01,54.00,VWS V14.01,2013-12-13 21:23:00,
2013-12-13 16:28:00,32.6,21.8,29.91,South,186,3.0,3.0,64,0.00,,---,0.01,49.00,VWS V14.01,2013-12-13 21:28:00,
2013-12-13 16:33:00,32.6,21.8,29.91,South,186,3.0,3.0,64,0.00,,---,0.01,44.00,VWS V14.01,2013-12-13 21:33:00,
2013-12-13 16:38:00,32.5,22.1,29.91,South,186,3.0,3.0,65,0.00,,---,0.01,33.00,VWS V14.01,2013-12-13 21:38:00,
2013-12-13 16:43:00,32.4,22.0,29.91,South,186,2.0,2.0,65,0.00,,---,0.01,25.00,VWS V14.01,2013-12-13 21:43:00,
2013-12-13 16:48:00,32.4,22.0,29.91,South,186,3.0,4.0,65,0.00,,---,0.01,19.00,VWS V14.01,2013-12-13 21:48:00,
2013-12-13 16:53:00,32.3,21.9,29.91,South,186,3.0,4.0,65,0.00,,---,0.01,16.00,VWS V14.01,2013-12-13 21:53:00,
2013-12-13 16:58:00,32.2,22.1,29.91,South,186,2.0,2.0,66,0.00,,---,0.01,11.00,VWS V14.01,2013-12-13 21:58:00,
2013-12-13 17:03:00,32.1,22.0,29.90,South,186,2.0,3.0,66,0.00,,---,0.01,7.00,VWS V14.01,2013-12-13 22:03:00,
2013-12-13 17:08:00,32.0,21.9,29.91,South,186,3.0,3.0,66,0.00,,---,0.01,0.00,VWS V14.01,2013-12-13 22:08:00,
2013-12-13 17:13:00,31.9,21.9,29.91,South,186,1.0,2.0,66,0.00,,---,0.01,0.00,VWS V14.01,2013-12-13 22:13:00,
2013-12-13 17:18:00,31.8,21.8,29.91,South,186,2.0,2.0,66,0.00,,---,0.01,0.00,VWS V14.01,2013-12-13 22:18:00,
2013-12-13 17:23:00,31.7,22.0,29.91,South,186,2.0,3.0,67,0.00,,---,0.01,0.00,VWS V14.01,2013-12-13 22:23:00,
2013-12-13 17:28:00,31.7,22.0,29.91,South,186,3.0,3.0,67,0.00,,---,0.01,0.00,VWS V14.01,2013-12-13 22:28:00,
2013-12-13 17:33:00,31.7,22.0,29.91,South,186,1.0,2.0,67,0.00,,---,0.01,0.00,VWS V14.01,2013-12-13 22:33:00,
2013-12-13 17:38:00,31.7,22.0,29.91,South,186,2.0,2.0,67,0.00,,---,0.01,0.00,VWS V14.01,2013-12-13 22:38:00,
2013-12-13 17:43:00,31.6,21.9,29.91,South,186,3.0,3.0,67,0.00,,---,0.01,0.00,VWS V14.01,2013-12-13 22:43:00,
2013-12-13 17:48:00,31.6,22.3,29.91,South,186,2.0,2.0,68,0.00,,---,0.01,0.00,VWS V14.01,2013-12-13 22:48:00,
2013-12-13 17:53:00,31.6,22.3,29.91,South,186,2.0,2.0,68,0.00,,---,0.01,0.00,VWS V14.01,2013-12-13 22:53:00,
2013-12-13 17:58:00,31.6,22.3,29.90,South,186,2.0,2.0,68,0.00,,---,0.01,0.00,VWS V14.01,2013-12-13 22:58:00,
2013-12-13 18:03:00,31.7,22.4,29.91,South,186,2.0,2.0,68,0.00,,---,0.01,0.00,VWS V14.01,2013-12-13 23:03:00,
2013-12-13 18:08:00,31.7,22.4,29.91,South,186,1.0,2.0,68,0.00,,---,0.01,0.00,VWS V14.01,2013-12-13 23:08:00,
2013-12-13 18:13:00,31.7,22.4,29.92,South,186,0.0,0.0,68,0.00,,---,0.01,0.00,VWS V14.01,2013-12-13 23:13:00,
2013-12-13 18:18:00,31.6,22.3,29.92,South,186,0.0,0.0,68,0.00,,---,0.01,0.00,VWS V14.01,2013-12-13 23:18:00,
2013-12-13 18:23:00,31.6,22.3,29.91,South,186,3.0,3.0,68,0.00,,---,0.01,0.00,VWS V14.01,2013-12-13 23:23:00,
2013-12-13 18:28:00,31.6,22.3,29.92,South,186,2.0,3.0,68,0.00,,---,0.01,0.00,VWS V14.01,2013-12-13 23:28:00,
2013-12-13 18:33:00,31.7,22.4,29.92,South,186,3.0,4.0,68,0.00,,---,0.01,0.00,VWS V14.01,2013-12-13 23:33:00,
2013-12-13 18:38:00,31.7,22.4,29.92,South,186,2.0,2.0,68,0.00,,---,0.01,0.00,VWS V14.01,2013-12-13 23:38:00,
2013-12-13 18:43:00,31.8,22.5,29.92,South,186,2.0,3.0,68,0.00,,---,0.01,0.00,VWS V14.01,2013-12-13 23:43:00,
2013-12-13 18:48:00,31.8,22.5,29.92,South,186,2.0,2.0,68,0.00,,---,0.01,0.00,VWS V14.01,2013-12-13 23:48:00,
2013-12-13 18:53:00,31.8,22.5,29.92,South,186,2.0,2.0,68,0.00,,---,0.01,0.00,VWS V14.01,2013-12-13 23:53:00,
2013-12-13 18:58:00,31.8,22.8,29.92,South,186,0.0,1.0,69,0.00,,---,0.01,0.00,VWS V14.01,2013-12-13 23:58:00,
2013-12-13 19:03:00,31.8,22.8,29.92,South,186,0.0,2.0,69,0.00,,---,0.01,0.00,VWS V14.01,2013-12-14 00:03:00,
2013-12-13 19:08:00,31.9,22.9,29.93,South,186,1.0,3.0,69,0.00,,---,0.01,0.00,VWS V14.01,2013-12-14 00:08:00,
2013-12-13 19:13:00,32.0,23.0,29.93,South,186,4.0,4.0,69,0.00,,---,0.01,0.00,VWS V14.01,2013-12-14 00:13:00,
2013-12-13 19:18:00,32.0,23.0,29.93,South,186,3.0,5.0,69,0.00,,---,0.01,0.00,VWS V14.01,2013-12-14 00:18:00,
2013-12-13 19:23:00,32.1,23.1,29.93,South,186,5.0,5.0,69,0.00,,---,0.01,0.00,VWS V14.01,2013-12-14 00:23:00,
2013-12-13 19:28:00,32.2,23.2,29.93,South,186,4.0,4.0,69,0.00,,---,0.01,0.00,VWS V14.01,2013-12-14 00:28:00,
2013-12-13 19:33:00,32.3,23.3,29.93,South,186,4.0,4.0,69,0.00,,---,0.01,0.00,VWS V14.01,2013-12-14 00:33:00,
2013-12-13 19:38:00,32.4,23.4,29.93,South,186,2.0,3.0,69,0.00,,---,0.01,0.00,VWS V14.01,2013-12-14 00:38:00,
2013-12-13 19:43:00,32.4,23.7,29.93,South,186,3.0,4.0,70,0.00,,---,0.01,0.00,VWS V14.01,2013-12-14 00:43:00,
2013-12-13 19:48:00,32.4,23.7,29.93,South,186,3.0,5.0,70,0.00,,---,0.01,0.00,VWS V14.01,2013-12-14 00:48:00,
2013-12-13 19:53:00,32.5,23.8,29.93,South,186,3.0,4.0,70,0.00,,---,0.01,0.00,VWS V14.01,2013-12-14 00:53:00,
2013-12-13 19:58:00,32.5,23.8,29.93,South,186,1.0,3.0,70,0.00,,---,0.01,0.00,VWS V14.01,2013-12-14 00:58:00,
2013-12-13 20:03:00,32.6,23.6,29.93,South,186,4.0,4.0,69,0.00,,---,0.01,0.00,VWS V14.01,2013-12-14 01:03:00,
2013-12-13 20:08:00,32.7,23.7,29.93,South,186,5.0,5.0,69,0.00,,---,0.01,0.00,VWS V14.01,2013-12-14 01:08:00,
2013-12-13 20:13:00,32.7,23.7,29.93,South,184,0.0,3.0,69,0.00,,---,0.01,0.00,VWS V14.01,2013-12-14 01:13:00,
2013-12-13 20:18:00,32.8,23.8,29.93,South,186,0.0,4.0,69,0.00,,---,0.01,0.00,VWS V14.01,2013-12-14 01:18:00,
2013-12-13 20:23:00,32.8,23.8,29.93,South,186,0.0,0.0,69,0.00,,---,0.01,0.00,VWS V14.01,2013-12-14 01:23:00,
2013-12-13 20:28:00,32.8,23.4,29.93,South,186,3.0,3.0,68,0.00,,---,0.01,0.00,VWS V14.01,2013-12-14 01:28:00,
2013-12-13 20:33:00,32.9,23.5,29.94,South,188,1.0,2.0,68,0.00,,---,0.01,0.00,VWS V14.01,2013-12-14 01:33:00,
2013-12-13 20:38:00,33.0,24.0,29.94,SSW,194,9.0,9.0,69,0.00,,---,0.01,0.00,VWS V14.01,2013-12-14 01:38:00,
2013-12-13 20:43:00,33.3,24.2,29.94,WSW,244,8.0,9.0,69,0.00,,---,0.01,0.00,VWS V14.01,2013-12-14 01:43:00,
2013-12-13 20:48:00,33.7,26.0,29.94,WSW,241,5.0,9.0,73,0.00,,---,0.01,0.00,VWS V14.01,2013-12-14 01:48:00,
2013-12-13 20:53:00,34.0,27.6,29.94,West,273,4.0,8.0,77,0.00,,---,0.01,0.00,VWS V14.01,2013-12-14 01:53:00,
2013-12-13 20:58:00,34.4,28.9,29.94,WNW,289,14.0,21.0,80,0.00,,---,0.01,0.00,VWS V14.01,2013-12-14 01:58:00,
2013-12-13 21:03:00,34.9,30.0,29.95,WSW,253,24.0,24.0,82,0.00,,---,0.01,0.00,VWS V14.01,2013-12-14 02:03:00,
2013-12-13 21:08:00,34.4,30.4,29.95,WSW,248,11.0,14.0,85,0.00,,---,0.01,0.00,VWS V14.01,2013-12-14 02:08:00,
2013-12-13 21:13:00,33.6,30.1,29.95,WSW,244,10.0,12.0,87,0.00,,---,0.01,0.00,VWS V14.01,2013-12-14 02:13:00,
2013-12-13 21:18:00,33.2,30.0,29.95,WSW,250,5.0,8.0,88,0.00,,---,0.01,0.00,VWS V14.01,2013-12-14 02:18:00,
2013-12-13 21:23:00,33.0,30.1,29.95,WSW,256,5.0,8.0,89,0.00,,---,0.01,0.00,VWS V14.01,2013-12-14 02:23:00,
2013-12-13 21:28:00,32.8,30.2,29.94,WSW,253,3.0,3.0,90,0.00,,---,0.01,0.00,VWS V14.01,2013-12-14 02:28:00,
2013-12-13 21:33:00,32.9,30.3,29.94,West,267,2.0,6.0,90,0.00,,---,0.01,0.00,VWS V14.01,2013-12-14 02:33:00,
2013-12-13 21:38:00,32.9,30.6,29.93,WNW,292,5.0,7.0,91,0.00,,---,0.01,0.00,VWS V14.01,2013-12-14 02:38:00,
2013-12-13 21:43:00,33.0,30.7,29.93,WNW,290,2.0,3.0,91,0.00,,---,0.01,0.00,VWS V14.01,2013-12-14 02:43:00,
2013-12-13 21:48:00,33.0,30.7,29.93,WNW,290,3.0,4.0,91,0.00,,---,0.01,0.00,VWS V14.01,2013-12-14 02:48:00,
2013-12-13 21:53:00,32.9,30.6,29.92,WNW,290,0.0,0.0,91,0.00,,---,0.01,0.00,VWS V14.01,2013-12-14 02:53:00,
2013-12-13 21:58:00,32.9,30.6,29.92,WNW,289,0.0,0.0,91,0.00,,---,0.01,0.00,VWS V14.01,2013-12-14 02:58:00,
2013-12-13 22:03:00,32.8,30.5,29.91,WNW,289,0.0,2.0,91,0.00,,---,0.01,0.00,VWS V14.01,2013-12-14 03:03:00,
2013-12-13 22:08:00,32.7,30.6,29.91,WNW,289,0.0,0.0,92,0.00,,---,0.01,0.00,VWS V14.01,2013-12-14 03:08:00,
2013-12-13 22:13:00,32.6,30.5,29.91,WNW,288,0.0,0.0,92,0.00,,---,0.01,0.00,VWS V14.01,2013-12-14 03:13:00,
2013-12-13 22:18:00,32.5,30.4,29.91,WNW,283,3.0,3.0,92,0.00,,---,0.01,0.00,VWS V14.01,2013-12-14 03:18:00,
2013-12-13 22:23:00,32.5,30.4,29.90,WNW,283,3.0,3.0,92,0.00,,---,0.01,0.00,VWS V14.01,2013-12-14 03:23:00,
2013-12-13 22:28:00,32.4,30.3,29.90,West,281,4.0,4.0,92,0.00,,---,0.01,0.00,VWS V14.01,2013-12-14 03:28:00,
2013-12-13 22:33:00,32.4,30.3,29.91,WSW,258,6.0,7.0,92,0.00,,---,0.01,0.00,VWS V14.01,2013-12-14 03:33:00,
2013-12-13 22:38:00,32.3,30.2,29.91,SW,225,4.0,5.0,92,0.00,,---,0.01,0.00,VWS V14.01,2013-12-14 03:38:00,
2013-12-13 22:43:00,32.2,30.1,29.91,SW,219,2.0,4.0,92,0.00,,---,0.01,0.00,VWS V14.01,2013-12-14 03:43:00,
2013-12-13 22:48:00,32.1,30.0,29.91,SW,219,0.0,0.0,92,0.00,,---,0.01,0.00,VWS V14.01,2013-12-14 03:48:00,
2013-12-13 22:52:00,32.0,29.9,29.91,SW,219,0.0,0.0,92,0.00,,---,0.01,0.00,VWS V14.01,2013-12-14 03:52:00,
2013-12-13 22:57:00,32.0,30.2,29.91,SW,219,0.0,0.0,93,0.00,,---,0.01,0.00,VWS V14.01,2013-12-14 03:57:00,
2013-12-13 23:02:00,32.0,30.2,29.91,SW,219,0.0,0.0,93,0.00,,---,0.01,0.00,VWS V14.01,2013-12-14 04:02:00,
2013-12-13 23:07:00,32.0,30.2,29.90,SW,219,0.0,0.0,93,0.00,,---,0.01,0.00,VWS V14.01,2013-12-14 04:07:00,
2013-12-13 23:12:00,32.0,30.2,29.90,SW,219,0.0,0.0,93,0.00,,---,0.01,0.00,VWS V14.01,2013-12-14 04:12:00,
2013-12-13 23:17:00,31.9,30.1,29.90,SW,219,0.0,0.0,93,0.00,,---,0.01,0.00,VWS V14.01,2013-12-14 04:17:00,
2013-12-13 23:22:00,31.9,30.1,29.90,SW,219,2.0,2.0,93,0.00,,---,0.01,0.00,VWS V14.01,2013-12-14 04:22:00,
2013-12-13 23:27:00,31.8,30.0,29.91,SW,219,3.0,3.0,93,0.00,,---,0.01,0.00,VWS V14.01,2013-12-14 04:27:00,
2013-12-13 23:32:00,31.8,30.0,29.91,SW,219,0.0,1.0,93,0.00,,---,0.01,0.00,VWS V14.01,2013-12-14 04:32:00,
2013-12-13 23:37:00,31.8,30.0,29.90,SW,219,2.0,3.0,93,0.00,,---,0.01,0.00,VWS V14.01,2013-12-14 04:37:00,
2013-12-13 23:42:00,31.7,29.9,29.90,SW,219,5.0,5.0,93,0.00,,---,0.01,0.00,VWS V14.01,2013-12-14 04:42:00,
2013-12-13 23:47:00,31.7,29.9,29.89,SW,219,6.0,6.0,93,0.00,,---,0.01,0.00,VWS V14.01,2013-12-14 04:47:00,
2013-12-13 23:52:00,31.6,29.8,29.90,SW,219,2.0,3.0,93,0.00,,---,0.01,0.00,VWS V14.01,2013-12-14 04:52:00,
2013-12-13 23:57:00,31.6,29.8,29.90,SW,219,1.0,1.0,93,0.00,,---,0.01,0.00,VWS V14.01,2013-12-14 04:57:00,